Regional Weather Roundup
Issued by NWS

Home | Current Version | Previous Version | Text Only | Print | Product List | Glossary Off
Versions: 1 2 3 4 5 6 7 8 9 10 11 12 13 14 15 16 17 18 19 20 21 22 23 24 25 26 27 28 29 30 31 32 33 34 35 36 37 38 39 40 41 42 43 44 45 46 47 48 49 50

000
ASUS45 KCYS 280610
RWRWY

WYOMING REGIONAL WEATHER ROUNDUP
NATIONAL WEATHER SERVICE CHEYENNE WY
1200 AM MDT THU MAY 28 2015

NOTE:  "FAIR" INDICATES FEW OR NO CLOUDS BELOW 12,000 FEET
WITH NO SIGNIFICANT WEATHER AND/OR OBSTRUCTIONS TO VISIBILITY.

WYZ001-280700-
YELLOWSTONE NATIONAL PARK

CITY           SKY/WX    TMP DP  RH WIND       PRES   REMARKS
LK YELLOWSTONE   N/A     38  36  92 CALM      30.16F
6HR MIN TEMP:  37; 6HR MAX TEMP:  45;

W YELLOWSTONE  NOT AVBL

$$
WYZ002>013-054>058-071-098>099-280700-
NORTHERN WYOMING

CITY           SKY/WX    TMP DP  RH WIND       PRES   REMARKS
JACKSON        CLOUDY    45  41  87 S3        30.14R
CODY           CLOUDY    52  48  87 S6        30.05R
GREYBULL       FAIR      57  46  66 NW17      29.98S
6HR MIN TEMP:  57; 6HR MAX TEMP:  71;

WORLAND        FAIR      53  48  83 W6        29.99S
6HR MIN TEMP:  52; 6HR MAX TEMP:  70; 6HR PCP:  0.12;

SHERIDAN       MOCLDY    54  51  90 SW7       30.00S
6HR MIN TEMP:  54; 6HR MAX TEMP:  68;

BUFFALO        CLOUDY    53  49  86 W6        30.02F
6HR MIN TEMP:  53; 6HR MAX TEMP:  66; 6HR PCP:  0.04;

GILLETTE       LGT RAIN  57  55  93 W13       30.01R
6HR MIN TEMP:  56; 6HR MAX TEMP:  65; 6HR PCP:  0.10;

HULETT         CLOUDY    54  52  94 S7        29.99S
NEWCASTLE      FAIR      59  46  63 SE13      29.97S THUNDER

$$
WYZ014>020-022>026-101>103-280700-
CENTRAL WYOMING

CITY           SKY/WX    TMP DP  RH WIND       PRES   REMARKS
BIG PINEY      FAIR      42  39  89 N6        30.16S
6HR MIN TEMP:  42; 6HR MAX TEMP:  53; 6HR PCP: TRACE;

PINEDALE       FAIR      37  37 100 CALM      30.17R
DUBOIS         FAIR      41  34  75 NW12      30.12S
LANDER         FAIR      51  39  63 CALM      30.03R
6HR MIN TEMP:  51; 6HR MAX TEMP:  63;

RIVERTON       FAIR      50  44  80 N5        30.04S
6HR MIN TEMP:  50; 6HR MAX TEMP:  62;

CASPER         FAIR      51  44  77 W6        30.04R
6HR MIN TEMP:  51; 6HR MAX TEMP:  68; 6HR PCP: TRACE;

DOUGLAS        FAIR      54  47  77 CALM      30.01S
6HR MIN TEMP:  53; 6HR MAX TEMP:  73;


$$
WYZ021-027>030-104>119-280700-
SOUTHERN WYOMING

CITY           SKY/WX    TMP DP  RH WIND       PRES   REMARKS
EVANSTON       MOCLDY    42  39  89 S8        30.19S
6HR MIN TEMP:  42; 6HR MAX TEMP:  60; 6HR PCP:  0.11;

KEMMERER       CLOUDY    45  37  76 W10       30.18S
FORT BRIDGER   CLOUDY    45  45 100 SW18G26   30.23R
ROCK SPRINGS   CLOUDY    49  41  74 SW7       30.15R
6HR MIN TEMP:  48; 6HR MAX TEMP:  52; 6HR PCP: TRACE;

DIXON          CLOUDY    51  44  76 CALM      30.20R
RAWLINS        FAIR      46  40  79 E5        30.14S
6HR MIN TEMP:  45; 6HR MAX TEMP:  63; 6HR PCP:  0.02;

SARATOGA       CLOUDY    46  43  87 S6        30.18S
LARAMIE        FAIR      45  39  79 S8        30.15S
6HR MIN TEMP:  45; 6HR MAX TEMP:  62; 6HR PCP: TRACE;

CHEYENNE       LGT RAIN  54  50  86 SE8       30.11R
6HR MIN TEMP:  54; 6HR MAX TEMP:  66; 6HR PCP:  0.01;

TORRINGTON     LGT RAIN  59  53  80 CALM      30.02R
6HR MIN TEMP:  58; 6HR MAX TEMP:  71; 6HR PCP:  0.02;

PINE BLUFFS    MOCLDY    54  54 100 SE12      30.09F

$$


USA.gov is the U.S. government's official web portal to all federal, state and local government web resources and services.